TimeCST,TemperatureF,Dew PointF,Humidity,Sea Level PressureIn,VisibilityMPH,Wind Direction,Wind SpeedMPH,Gust SpeedMPH,PrecipitationIn,Events,Conditions,WindDirDegrees,DateUTC
12:13 AM,21.2,19.4,93,30.15,10.0,SSE,6.9,-,N/A,,Overcast,150,2013-11-19 06:13:00
12:33 AM,21.2,19.4,93,30.16,10.0,South,10.4,-,N/A,,Overcast,170,2013-11-19 06:33:00
12:54 AM,21.2,19.4,93,30.16,10.0,South,10.4,-,N/A,,Overcast,170,2013-11-19 06:54:00
1:13 AM,21.2,19.4,93,30.16,10.0,SSE,10.4,16.1,N/A,,Overcast,150,2013-11-19 07:13:00
1:33 AM,21.2,19.4,93,30.15,10.0,SSE,12.7,-,N/A,,Overcast,150,2013-11-19 07:33:00
1:54 AM,21.2,19.4,93,30.14,10.0,SSE,15.0,-,N/A,,Overcast,150,2013-11-19 07:54:00
2:13 AM,21.2,19.4,93,30.13,10.0,SSE,17.3,21.9,N/A,,Overcast,160,2013-11-19 08:13:00
2:33 AM,21.2,19.4,93,30.13,10.0,SSE,15.0,21.9,N/A,,Overcast,150,2013-11-19 08:33:00
2:54 AM,21.2,19.4,93,30.13,10.0,South,13.8,18.4,N/A,,Overcast,170,2013-11-19 08:54:00
3:13 AM,23.0,19.4,86,30.13,10.0,SSE,16.1,-,N/A,,Overcast,160,2013-11-19 09:13:00
3:33 AM,23.0,19.4,86,30.12,10.0,SSE,13.8,18.4,N/A,,Overcast,160,2013-11-19 09:33:00
3:54 AM,23.0,19.4,86,30.12,10.0,SSE,13.8,-,N/A,,Overcast,150,2013-11-19 09:54:00
4:13 AM,23.0,19.4,86,30.10,10.0,SSE,15.0,-,N/A,,Overcast,150,2013-11-19 10:13:00
4:33 AM,23.0,21.2,93,30.09,10.0,SSE,12.7,-,N/A,,Overcast,150,2013-11-19 10:33:00
4:54 AM,23.0,19.4,86,30.08,10.0,SE,13.8,19.6,N/A,,Overcast,140,2013-11-19 10:54:00
5:13 AM,23.0,19.4,86,30.08,10.0,SE,16.1,-,N/A,,Overcast,140,2013-11-19 11:13:00
5:33 AM,23.0,21.2,93,30.08,10.0,SSE,17.3,-,N/A,,Overcast,150,2013-11-19 11:33:00
5:53 AM,23.0,21.2,93,30.06,10.0,SSE,16.1,-,N/A,,Overcast,150,2013-11-19 11:53:00
6:13 AM,24.8,21.2,86,30.06,10.0,SSE,19.6,-,N/A,,Overcast,150,2013-11-19 12:13:00
6:33 AM,24.8,21.2,86,30.05,10.0,SSE,19.6,-,N/A,,Overcast,150,2013-11-19 12:33:00
6:53 AM,24.8,21.2,86,30.05,10.0,SSE,19.6,25.3,N/A,,Mostly Cloudy,150,2013-11-19 12:53:00
7:14 AM,24.8,21.2,86,30.04,10.0,SSE,18.4,-,N/A,,Mostly Cloudy,150,2013-11-19 13:14:00
7:33 AM,24.8,21.2,86,30.03,10.0,SSE,18.4,-,N/A,,Mostly Cloudy,150,2013-11-19 13:33:00
7:53 AM,24.8,21.2,86,30.02,10.0,SSE,18.4,-,N/A,,Scattered Clouds,150,2013-11-19 13:53:00
8:14 AM,24.8,21.2,86,30.02,10.0,SSE,17.3,-,N/A,,Clear,150,2013-11-19 14:14:00
8:33 AM,24.8,21.2,86,30.01,10.0,SSE,16.1,20.7,N/A,,Scattered Clouds,150,2013-11-19 14:33:00
8:53 AM,24.8,21.2,86,29.99,10.0,SSE,18.4,-,N/A,,Clear,150,2013-11-19 14:53:00
9:14 AM,24.8,21.2,86,29.99,10.0,SSE,15.0,21.9,N/A,,Scattered Clouds,150,2013-11-19 15:14:00
9:33 AM,24.8,21.2,86,29.98,10.0,SSE,16.1,-,N/A,,Clear,150,2013-11-19 15:33:00
9:53 AM,24.8,21.2,86,29.97,10.0,SSE,16.1,-,N/A,,Clear,150,2013-11-19 15:53:00
10:14 AM,24.8,21.2,86,29.96,10.0,SSE,16.1,19.6,N/A,,Scattered Clouds,150,2013-11-19 16:14:00
10:33 AM,26.6,21.2,80,29.95,10.0,SE,15.0,19.6,N/A,,Scattered Clouds,140,2013-11-19 16:33:00
10:53 AM,26.6,21.2,80,29.94,10.0,SSE,16.1,-,N/A,,Clear,150,2013-11-19 16:53:00
11:13 AM,26.6,21.2,80,29.92,10.0,SSE,19.6,-,N/A,,Clear,150,2013-11-19 17:13:00
11:33 AM,26.6,21.2,80,29.90,10.0,SSE,18.4,-,N/A,,Clear,150,2013-11-19 17:33:00
11:53 AM,26.6,21.2,80,29.88,10.0,SSE,16.1,-,N/A,,Scattered Clouds,150,2013-11-19 17:53:00
12:13 PM,28.4,21.2,74,29.87,10.0,SSE,18.4,-,N/A,,Scattered Clouds,150,2013-11-19 18:13:00
12:34 PM,28.4,21.2,74,29.84,10.0,SSE,19.6,-,N/A,,Clear,150,2013-11-19 18:34:00
12:53 PM,28.4,21.2,74,29.82,10.0,SE,18.4,24.2,N/A,,Clear,140,2013-11-19 18:53:00
1:13 PM,28.4,21.2,74,29.80,10.0,SSE,21.9,-,N/A,,Scattered Clouds,150,2013-11-19 19:13:00
1:34 PM,30.2,21.2,69,29.78,10.0,SE,15.0,23.0,N/A,,Scattered Clouds,140,2013-11-19 19:34:00
1:53 PM,30.2,21.2,69,29.76,10.0,SE,18.4,23.0,N/A,,Mostly Cloudy,140,2013-11-19 19:53:00
2:13 PM,30.2,23.0,75,29.74,10.0,SE,11.5,17.3,N/A,,Scattered Clouds,140,2013-11-19 20:13:00
2:33 PM,30.2,23.0,75,29.74,10.0,SE,15.0,-,N/A,,Scattered Clouds,140,2013-11-19 20:33:00
2:53 PM,30.2,23.0,75,29.73,10.0,SSE,16.1,21.9,N/A,,Scattered Clouds,150,2013-11-19 20:53:00
3:13 PM,30.2,23.0,75,29.70,10.0,SE,17.3,21.9,N/A,,Clear,140,2013-11-19 21:13:00
3:33 PM,32.0,23.0,69,29.69,10.0,SSE,19.6,23.0,N/A,,Clear,150,2013-11-19 21:33:00
3:54 PM,32.0,24.8,75,29.68,10.0,SSE,18.4,25.3,N/A,,Mostly Cloudy,150,2013-11-19 21:54:00
4:13 PM,32.0,23.0,69,29.69,10.0,SE,18.4,24.2,N/A,,Scattered Clouds,140,2013-11-19 22:13:00
4:33 PM,32.0,24.8,75,29.67,10.0,SSE,17.3,-,N/A,,Scattered Clouds,150,2013-11-19 22:33:00
4:54 PM,32.0,24.8,75,29.67,10.0,SE,12.7,-,N/A,,Mostly Cloudy,140,2013-11-19 22:54:00
5:13 PM,33.8,24.8,70,29.66,10.0,SE,13.8,-,N/A,,Scattered Clouds,140,2013-11-19 23:13:00
5:33 PM,33.8,24.8,70,29.66,10.0,SSE,15.0,-,N/A,,Clear,150,2013-11-19 23:33:00
5:54 PM,33.8,26.6,75,29.65,10.0,SSE,21.9,-,N/A,,Scattered Clouds,160,2013-11-19 23:54:00
6:13 PM,33.8,26.6,75,29.64,10.0,SSE,21.9,-,0.01,,Scattered Clouds,150,2013-11-20 00:13:00
6:33 PM,33.8,26.6,75,29.64,10.0,SSE,21.9,-,0.01,,Scattered Clouds,160,2013-11-20 00:33:00
6:54 PM,33.8,26.6,75,29.64,10.0,SSE,21.9,-,0.01,,Clear,150,2013-11-20 00:54:00
7:13 PM,33.8,26.6,75,29.62,10.0,SSE,23.0,-,N/A,,Scattered Clouds,150,2013-11-20 01:13:00
7:33 PM,35.6,26.6,70,29.61,10.0,SSE,26.5,-,N/A,,Scattered Clouds,150,2013-11-20 01:33:00
7:53 PM,35.6,26.6,70,29.60,10.0,SSE,23.0,-,N/A,,Scattered Clouds,150,2013-11-20 01:53:00
8:14 PM,35.6,26.6,70,29.58,10.0,SSE,23.0,-,0.01,,Scattered Clouds,150,2013-11-20 02:14:00
8:33 PM,35.6,28.4,75,29.59,10.0,SSE,21.9,28.8,0.02,,Mostly Cloudy,150,2013-11-20 02:33:00
8:53 PM,35.6,28.4,75,29.57,10.0,SSE,27.6,-,0.03,,Scattered Clouds,160,2013-11-20 02:53:00
9:14 PM,35.6,28.4,75,29.57,10.0,SSE,24.2,-,N/A,,Clear,160,2013-11-20 03:14:00
9:33 PM,35.6,28.4,75,29.57,10.0,SSE,21.9,29.9,0.01,,Clear,160,2013-11-20 03:33:00
9:53 PM,35.6,28.4,75,29.56,10.0,SSE,20.7,-,0.01,,Clear,160,2013-11-20 03:53:00
10:14 PM,35.6,28.4,75,29.56,10.0,SSE,19.6,-,N/A,,Clear,160,2013-11-20 04:14:00
10:33 PM,35.6,30.2,81,29.56,10.0,SSE,18.4,-,N/A,,Clear,160,2013-11-20 04:33:00
10:53 PM,35.6,30.2,81,29.55,10.0,South,19.6,-,N/A,,Clear,170,2013-11-20 04:53:00
11:13 PM,35.6,30.2,81,29.55,10.0,SSE,18.4,-,N/A,,Clear,160,2013-11-20 05:13:00
11:33 PM,35.6,30.2,81,29.56,10.0,South,15.0,-,N/A,,Clear,170,2013-11-20 05:33:00
11:53 PM,35.6,30.2,81,29.57,10.0,South,8.1,-,N/A,,Clear,180,2013-11-20 05:53:00